882  
ASUS41 KRLX 241610  
RWRRLX  
WEST VIRGINIA REGIONAL WEATHER ROUNDUP  
NATIONAL WEATHER SERVICE CHARLESTON WV  
1200 PM EDT SUN JUN 24 2018  
 
NOTE: "FAIR" INDICATES FEW OR NO CLOUDS BELOW 12,000 FEET WITH NO  
SIGNIFICANT WEATHER AND/OR S TO VISIBILITY
.  
 
WVZ003-241700-  
NORTHERN PANHANDLE OF WEST VIRGINIA  
 
CITY SKY/WX TMP DP RH WIND PRES REMARKS
 
WHEELING FAIR 77 65 66 W12G22 29.91R  

 
 
WVZ009-241700-  
NORTHWEST WEST VIRGINIA  
 
CITY SKY/WX TMP DP RH WIND PRES REMARKS
 
PARKERSBURG FAIR 78 66 66 W9 29.95S  

 
 
WVZ006-241700-  
WESTERN WEST VIRGINIA  
 
CITY SKY/WX TMP DP RH WIND PRES REMARKS
 
HUNTINGTON FAIR 77 70 79 SW6 29.96R  

 
 
WVZ015-241700-  
WEST CENTRAL WEST VIRGINIA  
 
CITY SKY/WX TMP DP RH WIND PRES REMARKS
 
CHARLESTON TSTM 72 71 97 SW9 29.96R FOG  

 
 
WVZ022-031-241700-  
NORTH CENTRAL WEST VIRGINIA  
 
CITY SKY/WX TMP DP RH WIND PRES REMARKS
 
CLARKSBURG PTSUNNY 77 66 68 SW8 29.95R  
MORGANTOWN PTSUNNY 79 67 66 VRB6 29.94R  

 
 
WVZ025-035-042-045-241700-  
SOUTHERN WEST VIRGINIA  
 
CITY SKY/WX TMP DP RH WIND PRES REMARKS
 
BECKLEY PTSUNNY 75 64 68 W13G25 30.03R  
LOGAN CLOUDY 75 70 83 CALM 29.99S  
BLUEFIELD LGT RAIN 73 65 75 W13G26 30.07R  
LEWISBURG PTSUNNY 77 67 72 SW9 30.02R  

 
 
WVZ047-241700-  
NORTHERN MOUNTAINS OF WEST VIRGINIA  
 
CITY SKY/WX TMP DP RH WIND PRES REMARKS
 
ELKINS CLOUDY 73 63 70 NW5 29.99S  

 
 
WVZ052-241700-  
EASTERN PANHANDLE OF WEST VIRGINIA  
 
CITY SKY/WX TMP DP RH WIND PRES REMARKS
 
MARTINSBURG PTSUNNY 82 67 60 SW5 29.88R  
PETERSBURG CLOUDY 79 65 63 W8 29.91R HAZE  

 
 
 
CLICK HERE TO GO TO PREVIOUS BULLETINS.

The Nexlab WV Page
The Nexlab OH Page
The Nexlab KY Page
The Nexlab VA Page Main Text Page